• In Hungary
  • List of Countries
  • For 7 days
  • Water Temperature
  • Satellite Maps
  • Weather Map
  • News
  • Weather Widgets
  • user-avatar
    Login

    Hourly Weather Shorqorgon

    Today, 16 October, Tuesday

    Time Temperature Precipitation Wind Pressure Humidity
    00:00 +12°C° 0.3 mm 4 mps 727 mmHg 47%
    01:00 +12°C° 0.3 mm 4 mps 727 mmHg 53%
    02:00 +11°C° 0.3 mm 4 mps 727 mmHg 58%
    03:00 +11°C° 0.7 mm 4 mps 727 mmHg 62%
    04:00 +10°C° 0.7 mm 3 mps 727 mmHg 65%
    05:00 +10°C° 0.7 mm 3 mps 727 mmHg 69%
    06:00 +9°C° 0.7 mm 3 mps 728 mmHg 71%
    07:00 +9°C° 0.7 mm 3 mps 728 mmHg 73%
    08:00 +9°C° 0.7 mm 3 mps 728 mmHg 75%
    09:00 +9°C° 0.6 mm 3 mps 728 mmHg 74%
    10:00 +10°C° 0.6 mm 3 mps 728 mmHg 73%
    11:00 +10°C° 0.6 mm 3 mps 728 mmHg 73%
    12:00 +10°C° 0.4 mm 3 mps 728 mmHg 70%
    13:00 +10°C° 0.4 mm 4 mps 728 mmHg 68%
    14:00 +11°C° 0.4 mm 4 mps 728 mmHg 66%
    15:00 +9°C° 0.4 mm 5 mps 728 mmHg 64%
    16:00 +9°C° 0.4 mm 5 mps 729 mmHg 63%
    17:00 +9°C° 0.4 mm 5 mps 729 mmHg 62%
    18:00 +8°C° 0.3 mm 5 mps 730 mmHg 62%
    19:00 +8°C° 0.3 mm 6 mps 730 mmHg 63%
    20:00 +7°C° 0.3 mm 6 mps 730 mmHg 63%
    21:00 +7°C° 0.3 mm 5 mps 731 mmHg 63%
    22:00 +7°C° 0.3 mm 5 mps 731 mmHg 63%
    23:00 +6°C° 0.3 mm 4 mps 732 mmHg 63%

    Tomorrow, 17 October, Wednesday

    Time Temperature Precipitation Wind Pressure Humidity
    00:00 +6°C° 0.2 mm 4 mps 732 mmHg 64%
    01:00 +6°C° 0.2 mm 4 mps 733 mmHg 65%
    02:00 +6°C° 0.2 mm 4 mps 733 mmHg 65%
    03:00 +7°C° 0.2 mm 3 mps 734 mmHg 66%
    04:00 +7°C° 0.2 mm 3 mps 734 mmHg 67%
    05:00 +5°C° 0.2 mm 3 mps 735 mmHg 68%
    06:00 +5°C° 0.2 mm 4 mps 736 mmHg 67%
    07:00 +5°C° 0.2 mm 4 mps 736 mmHg 66%
    08:00 +5°C° 0.2 mm 4 mps 737 mmHg 65%
    09:00 +6°C° 0.1 mm 4 mps 737 mmHg 61%
    10:00 +7°C° 0.1 mm 4 mps 737 mmHg 57%
    11:00 +8°C° 0.1 mm 4 mps 737 mmHg 53%
    12:00 +8°C° 0.1 mm 4 mps 737 mmHg 49%
    13:00 +10°C° 0.1 mm 3 mps 737 mmHg 45%
    14:00 +11°C° 0.1 mm 3 mps 737 mmHg 41%
    15:00 +10°C° 0 mm 2 mps 737 mmHg 43%
    16:00 +10°C° 0 mm 2 mps 737 mmHg 44%
    17:00 +10°C° 0 mm 2 mps 737 mmHg 45%
    18:00 +8°C° 0 mm 2 mps 738 mmHg 49%
    19:00 +7°C° 0 mm 3 mps 739 mmHg 53%
    20:00 +5°C° 0 mm 3 mps 739 mmHg 56%
    21:00 +5°C° 0 mm 3 mps 739 mmHg 56%
    22:00 +4°C° 0 mm 3 mps 739 mmHg 55%
    23:00 +4°C° 0 mm 3 mps 739 mmHg 54%

    Day after tomorrow, 18 October, Thursday

    Time Temperature Precipitation Wind Pressure Humidity
    00:00 +3°C° 0 mm 3 mps 738 mmHg 53%
    01:00 +3°C° 0 mm 3 mps 737 mmHg 52%
    02:00 +3°C° 0 mm 3 mps 737 mmHg 51%
    03:00 +4°C° 0 mm 2 mps 736 mmHg 50%
    04:00 +3°C° 0 mm 2 mps 736 mmHg 49%
    05:00 +3°C° 0 mm 2 mps 735 mmHg 48%
    06:00 +4°C° 0 mm 2 mps 735 mmHg 46%
    07:00 +6°C° 0 mm 1 mps 735 mmHg 44%
    08:00 +6°C° 0 mm 1 mps 735 mmHg 42%
    09:00 +8°C° 0 mm 1 mps 734 mmHg 39%
    10:00 +10°C° 0 mm 1 mps 733 mmHg 36%
    11:00 +11°C° 0 mm 1 mps 732 mmHg 33%
    12:00 +12°C° 0 mm 1 mps 732 mmHg 31%
    13:00 +13°C° 0 mm 1 mps 731 mmHg 30%
    14:00 +14°C° 0 mm 1 mps 731 mmHg 29%
    15:00 +13°C° 0 mm 1 mps 731 mmHg 30%
    16:00 +13°C° 0 mm 1 mps 731 mmHg 31%
    17:00 +12°C° 0 mm 1 mps 731 mmHg 31%
    18:00 +11°C° 0 mm 1 mps 732 mmHg 32%
    19:00 +11°C° 0 mm 1 mps 732 mmHg 33%
    20:00 +10°C° 0 mm 1 mps 732 mmHg 34%
    21:00 +10°C° 0 mm 1 mps 732 mmHg 36%
    22:00 +10°C° 0 mm 1 mps 732 mmHg 37%
    23:00 +9°C° 0 mm 1 mps 732 mmHg 38%

    19 October, Friday

    Time Temperature Precipitation Wind Pressure Humidity
    00:00 +9°C° 0 mm 1 mps 732 mmHg 38%
    01:00 +9°C° 0 mm 1 mps 732 mmHg 39%
    02:00 +9°C° 0 mm 1 mps 732 mmHg 40%
    03:00 +9°C° 0 mm 1 mps 732 mmHg 40%
    04:00 +9°C° 0 mm 1 mps 732 mmHg 40%
    05:00 +9°C° 0 mm 1 mps 732 mmHg 41%
    06:00 +9°C° 0 mm 1 mps 732 mmHg 40%
    07:00 +10°C° 0 mm 1 mps 732 mmHg 40%
    08:00 +10°C° 0 mm 1 mps 732 mmHg 39%
    09:00 +11°C° 0 mm 1 mps 732 mmHg 37%
    10:00 +13°C° 0 mm 1 mps 732 mmHg 35%
    11:00 +14°C° 0 mm 2 mps 731 mmHg 33%
    12:00 +14°C° 0 mm 1 mps 731 mmHg 32%
    13:00 +15°C° 0 mm 1 mps 731 mmHg 31%
    14:00 +16°C° 0 mm 1 mps 731 mmHg 30%
    15:00 +15°C° 0 mm 1 mps 731 mmHg 31%
    16:00 +15°C° 0 mm 1 mps 732 mmHg 32%
    17:00 +14°C° 0 mm 1 mps 732 mmHg 33%
    18:00 +13°C° 0 mm 2 mps 733 mmHg 35%
    19:00 +13°C° 0 mm 2 mps 733 mmHg 36%
    20:00 +12°C° 0 mm 2 mps 734 mmHg 38%
    21:00 +12°C° 0 mm 2 mps 734 mmHg 39%
    22:00 +10°C° 0 mm 2 mps 734 mmHg 40%
    23:00 +10°C° 0 mm 2 mps 734 mmHg 41%

    20 October, Saturday

    Time Temperature Precipitation Wind Pressure Humidity
    00:00 +10°C° 0 mm 2 mps 734 mmHg 42%
    01:00 +9°C° 0 mm 2 mps 734 mmHg 43%
    02:00 +9°C° 0 mm 2 mps 734 mmHg 43%
    03:00 +9°C° 0 mm 2 mps 734 mmHg 43%
    04:00 +9°C° 0 mm 2 mps 734 mmHg 43%
    05:00 +8°C° 0 mm 2 mps 734 mmHg 43%
    06:00 +9°C° 0 mm 2 mps 734 mmHg 42%
    07:00 +10°C° 0 mm 2 mps 734 mmHg 42%
    08:00 +10°C° 0 mm 2 mps 734 mmHg 41%
    09:00 +13°C° 0 mm 2 mps 734 mmHg 39%
    10:00 +14°C° 0 mm 2 mps 734 mmHg 38%
    11:00 +15°C° 0 mm 2 mps 733 mmHg 37%
    12:00 +16°C° 0 mm 2 mps 733 mmHg 36%
    13:00 +18°C° 0 mm 1 mps 733 mmHg 35%
    14:00 +18°C° 0 mm 1 mps 733 mmHg 33%
    15:00 +18°C° 0 mm 1 mps 733 mmHg 34%
    16:00 +16°C° 0 mm 1 mps 733 mmHg 35%
    17:00 +16°C° 0 mm 1 mps 734 mmHg 36%
    18:00 +15°C° 0 mm 2 mps 734 mmHg 37%
    19:00 +14°C° 0 mm 2 mps 734 mmHg 39%
    20:00 +12°C° 0 mm 3 mps 735 mmHg 41%
    21:00 +12°C° 0 mm 3 mps 735 mmHg 42%
    22:00 +11°C° 0 mm 3 mps 735 mmHg 43%
    23:00 +11°C° 0 mm 3 mps 735 mmHg 43%

    21 October, Sunday

    Time Temperature Precipitation Wind Pressure Humidity
    00:00 +10°C° 0 mm 2 mps 735 mmHg 43%
    01:00 +10°C° 0 mm 2 mps 734 mmHg 44%
    02:00 +10°C° 0 mm 2 mps 734 mmHg 44%
    03:00 +10°C° 0 mm 2 mps 734 mmHg 44%
    04:00 +9°C° 0 mm 2 mps 734 mmHg 44%
    05:00 +9°C° 0 mm 2 mps 734 mmHg 44%
    06:00 +10°C° 0 mm 2 mps 734 mmHg 43%
    07:00 +12°C° 0 mm 2 mps 734 mmHg 42%
    08:00 +12°C° 0 mm 2 mps 734 mmHg 41%
    09:00 +14°C° 0 mm 2 mps 734 mmHg 38%
    10:00 +16°C° 0 mm 2 mps 733 mmHg 35%
    11:00 +18°C° 0 mm 2 mps 733 mmHg 32%
    12:00 +19°C° 0 mm 2 mps 733 mmHg 31%
    13:00 +19°C° 0 mm 2 mps 732 mmHg 30%
    14:00 +20°C° 0 mm 2 mps 732 mmHg 28%
    15:00 +20°C° 0 mm 2 mps 732 mmHg 29%
    16:00 +20°C° 0 mm 1 mps 732 mmHg 31%
    17:00 +19°C° 0 mm 1 mps 733 mmHg 32%
    18:00 +17°C° 0 mm 2 mps 733 mmHg 33%
    19:00 +16°C° 0 mm 2 mps 733 mmHg 35%
    20:00 +15°C° 0 mm 2 mps 734 mmHg 36%
    21:00 +14°C° 0 mm 2 mps 734 mmHg 37%
    22:00 +14°C° 0 mm 2 mps 733 mmHg 37%
    23:00 +13°C° 0 mm 2 mps 733 mmHg 37%
    Show more